| time (UTC) | temp F | wind direction | speed MPH | gust MPH | rain 1hr in | rain 24hr in | rain mn in | humidity % | barometer mb |
| 20260504215338 | 77 | 340 | 5.0 | 12.0 | 0.00 | 0.00 | 0.00 | 28 | 1002.2 |
| 20260504214340 | 77 | 332 | 4.0 | 15.0 | 0.00 | 0.00 | 0.00 | 29 | 1002.2 |
| 20260504213350 | 78 | 15 | 5.0 | 11.0 | 0.00 | 0.00 | 0.00 | 30 | 1002.1 |
| 20260504212334 | 78 | 30 | 4.0 | 10.0 | 0.00 | 0.00 | 0.00 | 31 | 1002.1 |
| 20260504211334 | 78 | 358 | 6.0 | 9.0 | 0.00 | 0.00 | 0.00 | 31 | 1002.0 |
| 20260504210406 | 78 | 19 | 6.0 | 13.0 | 0.00 | 0.00 | 0.00 | 31 | 1002.2 |
| 20260504205330 | 78 | 22 | 4.0 | 11.0 | 0.00 | 0.00 | 0.00 | 33 | 1002.0 |
| 20260504204337 | 79 | 318 | 5.0 | 10.0 | 0.00 | 0.00 | 0.00 | 34 | 1001.9 |
| 20260504203411 | 78 | 31 | 3.0 | 11.0 | 0.00 | 0.00 | 0.00 | 33 | 1001.9 |
| 20260504202336 | 79 | 1 | 6.0 | 14.0 | 0.00 | 0.00 | 0.00 | 33 | 1001.9 |
| 20260504201325 | 79 | 22 | 5.0 | 11.0 | 0.00 | 0.00 | 0.00 | 34 | 1002.0 |
| 20260504200336 | 79 | 360 | 4.0 | 12.0 | 0.00 | 0.00 | 0.00 | 34 | 1001.8 |
| 20260504195326 | 79 | 325 | 3.0 | 12.0 | 0.00 | 0.00 | 0.00 | 33 | 1001.8 |
| 20260504194344 | 79 | 23 | 7.0 | 14.0 | 0.00 | 0.00 | 0.00 | 33 | 1001.8 |
| 20260504193330 | 79 | 3 | 6.0 | 13.0 | 0.00 | 0.00 | 0.00 | 35 | 1001.8 |
| 20260504192340 | 80 | 337 | 4.0 | 11.0 | 0.00 | 0.00 | 0.00 | 33 | 1001.7 |
| 20260504191328 | 80 | 306 | 5.0 | 12.0 | 0.00 | 0.00 | 0.00 | 31 | 1001.6 |
| 20260504190338 | 81 | 154 | 2.0 | 13.0 | 0.00 | 0.00 | 0.00 | 32 | 1001.5 |
| 20260504185330 | 82 | 22 | 3.0 | 7.0 | 0.00 | 0.00 | 0.00 | 30 | 1001.4 |
| 20260504184348 | 81 | 325 | 4.0 | 9.0 | 0.00 | 0.00 | 0.00 | 30 | 1001.4 |
| 20260504183326 | 81 | 22 | 2.0 | 11.0 | 0.00 | 0.00 | 0.00 | 29 | 1001.3 |
| 20260504182359 | 82 | 283 | 2.0 | 9.0 | 0.00 | 0.00 | 0.00 | 30 | 1001.3 |
| 20260504181325 | 81 | 45 | 2.0 | 6.0 | 0.00 | 0.00 | 0.00 | 27 | 1001.4 |
| 20260504180349 | 81 | 4 | 2.0 | 7.0 | 0.00 | 0.00 | 0.00 | 33 | 1001.6 |
| 20260504175341 | 80 | 315 | 5.0 | 10.0 | 0.00 | 0.00 | 0.00 | 29 | 1001.7 |
| 20260504174327 | 80 | 28 | 4.0 | 12.0 | 0.00 | 0.00 | 0.00 | 30 | 1001.8 |
| 20260504173356 | 79 | 243 | 2.0 | 10.0 | 0.00 | 0.00 | 0.00 | 33 | 1001.8 |
| 20260504172326 | 79 | 337 | 3.0 | 8.0 | 0.00 | 0.00 | 0.00 | 32 | 1001.9 |
| 20260504171331 | 79 | 308 | 3.0 | 7.0 | 0.00 | 0.00 | 0.00 | 32 | 1001.9 |
| 20260504170338 | 78 | 330 | 2.0 | 11.0 | 0.00 | 0.00 | 0.00 | 35 | 1002.1 |
| 20260504160359 | 75 | 140 | 2.0 | 5.0 | 0.00 | 0.00 | 0.00 | 39 | 1002.2 |
| 20260504150324 | 68 | 344 | 2.0 | 3.0 | 0.00 | 0.00 | 0.00 | 46 | 1002.3 |
| 20260504140325 | 62 | 273 | 1.0 | 5.0 | 0.00 | 0.00 | 0.00 | 53 | 1002.7 |
| 20260504130351 | 54 | 17 | 0.0 | 0.0 | 0.00 | 0.00 | 0.00 | 71 | 1002.6 |
| 20260504110333 | 49 | 141 | 0.0 | 0.0 | 0.00 | 0.00 | 0.00 | 71 | 1002.3 |
| 20260504100348 | 50 | 141 | 0.0 | 0.0 | 0.00 | 0.00 | 0.00 | 68 | 1002.4 |
| 20260504081350 | 51 | 141 | 0.0 | 0.0 | 0.00 | 0.00 | 0.00 | 66 | 1003.8 |
| 20260504080333 | 51 | 141 | 0.0 | 0.0 | 0.00 | 0.00 | 0.00 | 66 | 1003.9 |
| 20260504070350 | 51 | 141 | 0.0 | 0.0 | 0.00 | 0.00 | 0.00 | 66 | 1004.8 |
| 20260504050335 | 57 | 141 | 0.0 | 0.0 | 0.00 | 0.00 | 0.00 | 57 | 1006.2 |
| 20260504045328 | 58 | 141 | 0.0 | 0.0 | 0.00 | 0.00 | 0.00 | 55 | 1006.3 |
| 20260504044332 | 58 | 141 | 0.0 | 0.0 | 0.00 | 0.00 | 0.00 | 54 | 1006.3 |
| 20260504043359 | 58 | 141 | 0.0 | 0.0 | 0.00 | 0.00 | 0.00 | 53 | 1006.4 |
| 20260504042335 | 58 | 141 | 0.0 | 0.0 | 0.00 | 0.00 | 0.00 | 56 | 1006.6 |
| 20260504041340 | 58 | 141 | 0.0 | 0.0 | 0.00 | 0.00 | 0.00 | 56 | 1006.6 |
| 20260504040330 | 58 | 141 | 0.0 | 0.0 | 0.00 | 0.00 | 0.00 | 56 | 1006.8 |
| 20260504035340 | 59 | 141 | 0.0 | 0.0 | 0.00 | 0.00 | 0.00 | 54 | 1006.8 |
| 20260504034351 | 59 | 141 | 0.0 | 0.0 | 0.00 | 0.00 | 0.00 | 54 | 1006.9 |
| 20260504033339 | 60 | 141 | 0.0 | 0.0 | 0.00 | 0.00 | 0.00 | 54 | 1007.0 |
| 20260504032323 | 60 | 141 | 0.0 | 0.0 | 0.00 | 0.00 | 0.00 | 53 | 1007.0 |
| 20260504031358 | 60 | 141 | 0.0 | 0.0 | 0.00 | 0.00 | 0.00 | 52 | 1007.0 |
| 20260504030346 | 61 | 141 | 0.0 | 0.0 | 0.00 | 0.00 | 0.00 | 52 | 1007.1 |
| 20260504025337 | 61 | 141 | 0.0 | 0.0 | 0.00 | 0.00 | 0.00 | 51 | 1007.1 |
| 20260504024325 | 61 | 141 | 0.0 | 0.0 | 0.00 | 0.00 | 0.00 | 50 | 1007.1 |
| 20260504023359 | 62 | 141 | 0.0 | 0.0 | 0.00 | 0.00 | 0.00 | 49 | 1007.3 |
| 20260504022326 | 62 | 141 | 0.0 | 0.0 | 0.00 | 0.00 | 0.00 | 47 | 1007.3 |
| 20260504021335 | 63 | 141 | 0.0 | 0.0 | 0.00 | 0.00 | 0.00 | 46 | 1007.3 |
| 20260504020347 | 64 | 141 | 0.0 | 0.0 | 0.00 | 0.00 | 0.00 | 45 | 1007.4 |
| 20260504015341 | 65 | 141 | 0.0 | 0.0 | 0.00 | 0.00 | 0.00 | 43 | 1007.5 |
| 20260504014343 | 67 | 141 | 0.0 | 0.0 | 0.00 | 0.00 | 0.00 | 41 | 1007.5 |
| 20260504013323 | 69 | 141 | 0.0 | 0.0 | 0.00 | 0.00 | 0.00 | 40 | 1007.4 |
| 20260504012331 | 70 | 141 | 0.0 | 0.0 | 0.00 | 0.00 | 0.00 | 37 | 1007.4 |
| 20260504011337 | 71 | 141 | 0.0 | 1.0 | 0.00 | 0.00 | 0.00 | 36 | 1007.5 |
| 20260504010347 | 71 | 203 | 0.0 | 2.0 | 0.00 | 0.00 | 0.00 | 35 | 1007.5 |
| 20260504005331 | 72 | 246 | 0.0 | 3.0 | 0.00 | 0.00 | 0.00 | 35 | 1007.6 |
| 20260504004336 | 72 | 120 | 1.0 | 4.0 | 0.00 | 0.00 | 0.00 | 34 | 1007.7 |
| 20260504003325 | 73 | 219 | 1.0 | 3.0 | 0.00 | 0.00 | 0.00 | 32 | 1007.8 |
| 20260504002337 | 74 | 169 | 1.0 | 2.0 | 0.00 | 0.00 | 0.00 | 31 | 1007.8 |
| 20260504001331 | 74 | 195 | 1.0 | 2.0 | 0.00 | 0.00 | 0.00 | 31 | 1007.9 |
| 20260504000323 | 75 | 68 | 0.0 | 1.0 | 0.00 | 0.00 | 0.00 | 30 | 1008.0 |
| 20260503235334 | 75 | 357 | 1.0 | 3.0 | 0.00 | 0.00 | 0.00 | 29 | 1008.0 |
| 20260503234359 | 76 | 197 | 0.0 | 4.0 | 0.00 | 0.00 | 0.00 | 31 | 1008.0 |
| 20260503233348 | 77 | 2 | 1.0 | 4.0 | 0.00 | 0.00 | 0.00 | 29 | 1008.1 |
| 20260503232328 | 77 | 26 | 1.0 | 5.0 | 0.00 | 0.00 | 0.00 | 30 | 1008.2 |
| 20260503231336 | 78 | 6 | 1.0 | 9.0 | 0.00 | 0.00 | 0.00 | 29 | 1008.3 |
| 20260503230347 | 78 | 247 | 1.0 | 3.0 | 0.00 | 0.00 | 0.00 | 28 | 1008.2 |
| 20260503225332 | 78 | 269 | 1.0 | 4.0 | 0.00 | 0.00 | 0.00 | 28 | 1008.3 |
| 20260503224346 | 78 | 221 | 0.0 | 2.0 | 0.00 | 0.00 | 0.00 | 30 | 1008.3 |
| 20260503223412 | 78 | 143 | 1.0 | 3.0 | 0.00 | 0.00 | 0.00 | 28 | 1008.4 |
| 20260503222335 | 77 | 40 | 1.0 | 5.0 | 0.00 | 0.00 | 0.00 | 29 | 1008.5 |
| 20260503221341 | 78 | 344 | 0.0 | 5.0 | 0.00 | 0.00 | 0.00 | 29 | 1008.4 |
| 20260503220349 | 78 | 199 | 2.0 | 5.0 | 0.00 | 0.00 | 0.00 | 29 | 1008.6 |